Torna al catalogo

ORBCOMM FM 2

AttivoComunicazioniVLEO
NORAD 23546·PAYLOAD·🇺🇸 United States

Lanciato Apr 3, 1995 da Vandenberg Space Force Base

Loading…

Prossimi Passaggi (prossime 24 ore)

TLE

AggiornatoSource: Space-Track

Epoca: Sep 14, 2026, 15:25 UTC

1 23546U 95017B   26257.64236795  .00007388  00000-0  60714-3 0  9993
2 23546  69.9630  30.6717 0005752 323.8686  36.2084 14.99526114680104

Traccia ORBCOMM FM 2 in tempo reale con AllMySat

Download on the App Store